Location: *
(48.3422°S, 175.3930°E)
Time: 07:18:39
(UTC+00:00)

Daily predictions for brighter satellites

Satellite Brightness Start Highest point End
(mag) Time Altitude Azimuth Time Altitude Azimuth Time Altitude Azimuth
EO 1 Del DPAF 4.5 12:02:25 25° ENE 12:03:48 34° ESE 12:07:14 10° S
Cosmos 1758 3.4 12:05:43 45° NW 12:06:49 69° WSW 12:10:54 10° S
Cosmos 1624 Rocket 4.2 12:05:07 37° NNE 12:06:59 59° ENE 12:12:12 10° SSE
Cosmos 2322 4.1 12:04:22 21° NW 12:08:13 60° WSW 12:13:57 10° SSE
ISS -1.2 12:13:11 13° E 12:13:11 13° E 12:13:45 10° E
NOSS 0 Rocket 4.1 12:08:43 33° N 12:11:30 62° ENE 12:17:43 10° SE
ATLAS 5 CENTAUR R/B 4.4 12:06:41 10° SW 12:11:50 26° SSE 12:16:16 10° ESE
Cosmos 1371 Rocket 4.1 12:10:14 37° N 12:12:23 71° ENE 12:17:48 10° SSE
SL-24 DEB 4.3 12:11:21 40° N 12:13:06 81° W 12:18:00 10° S
Cosmos 676 Rocket 4.1 12:10:40 10° SSW 12:15:57 71° ESE 12:18:35 30° NE
ADEOS II 3.8 12:15:32 10° ENE 12:19:58 28° ESE 12:24:25 10° S
Cosmos 2237 Rocket 2.5 12:19:25 35° N 12:21:35 55° ENE 12:27:10 10° SE
SL-4 R/B 1.8 12:18:07 10° WSW 12:22:21 89° SSE 12:24:56 20° ENE
Meteor 1-21 Rocket 4.2 12:17:27 10° SSW 12:23:15 89° E 12:26:02 33° N
Cosmos 2333 Rocket 3.4 12:25:26 12° WNW 12:30:19 38° SW 12:35:39 10° SSE
Cosmos 1980 3.8 12:28:03 35° N 12:30:28 68° ENE 12:36:11 10° SSE
Cosmos 2366 rocket 4.0 12:31:27 32° NNW 12:34:31 84° W 12:40:48 10° S
SAR-Lupe-2 4.2 12:37:12 39° WNW 12:37:35 41° W 12:41:04 10° SSW
BREEZE-M DEB (TANK) 3.8 12:40:15 14° E 12:40:15 14° E 12:40:47 10° E
Okean 1-7 Rocket 4.2 12:34:46 10° S 12:39:08 50° ESE 12:41:12 28° NE
Cosmos 1140 Rocket 4.4 12:35:44 10° SW 12:40:24 34° WNW 12:41:51 29° NW
Cosmos 2341 Rocket 4.5 12:37:03 26° NW 12:40:38 54° WSW 12:47:00 10° S
CZ-2D R/B 2.3 12:37:33 27° NNE 12:40:39 72° ESE 12:46:08 10° S
Cosmos 1190 Rocket 4.5 12:35:45 10° SSW 12:40:48 46° WNW 12:42:30 34° NNW
SL-16 R/B 3.4 12:39:59 22° NE 12:42:20 29° ENE 12:47:11 10° SE
Cosmos 2218 Rocket 4.1 12:40:25 31° NNW 12:43:37 72° W 12:49:59 10° S
CZ-4 R/B 3.8 12:44:45 38° N 12:46:37 73° WNW 12:51:26 10° SSW
Cosmos 2369 Rocket 4.3 12:42:46 10° S 12:47:31 26° SE 12:52:13 10° E
Cosmos 405 Rocket 4.0 12:44:20 10° SSW 12:47:46 28° W 12:48:26 27° WNW
Terra 4.1 12:45:25 10° SSW 12:48:30 17° WSW 12:51:35 10° W
SL-8 Rocket 4.4 12:46:02 27° NW 12:49:30 57° WSW 12:55:50 10° S
Resurs 1-4 Rocket 2.1 12:47:11 30° NNE 12:49:54 86° ESE 12:55:17 10° SSW
Cosmos 2219 Rocket 3.6 12:47:02 11° WNW 12:51:57 33° SW 12:57:05 10° SSE
CENTAUR R/B 2.7 12:51:01 10° SW 12:56:06 36° WNW 12:57:18 32° NW
CZ-4C R/B 4.4 12:49:35 10° W 12:56:14 31° SSW 13:01:53 10° SE
Cosmos 1452 Rocket 3.9 12:54:22 31° NNE 12:56:36 53° ENE 13:01:47 10° SSE
BREEZE-M DEB (TANK) 4.3 12:56:58 17° NE 12:57:21 17° ENE 13:00:58 10° E
Cosmos 1626 Rocket 4.0 12:53:54 10° S 12:58:16 56° ESE 13:00:27 27° NE
NPP 3.7 12:57:35 27° NNE 13:00:41 85° ESE 13:06:12 10° SSW
USA 276 2.0 13:01:07 54° W 13:01:45 87° SSW 13:04:58 10° ESE
AQUA 4.1 12:59:01 25° NNE 13:01:47 67° ESE 13:06:36 10° S
Cosmos 1892 3.9 13:00:13 10° S 13:03:52 38° ESE 13:05:55 21° NE
Cosmos 1821 Rocket 4.1 13:00:19 29° N 13:03:54 79° E 13:10:24 10° SSE
Cosmos 1328 3.9 13:00:30 10° SSW 13:04:34 64° W 13:05:44 43° NNW
Cosmos 1727 Rocket 4.1 12:58:26 10° SSW 13:04:46 68° W 13:08:07 29° NNW
Cosmos 1953 3.3 13:05:29 28° WNW 13:06:53 38° WSW 13:10:47 10° S
NOSS 3-4 (A) 4.1 13:02:16 26° NNW 13:07:32 74° NE 13:15:25 10° SE
NOSS 3-4 (C) 4.1 13:02:23 26° NNW 13:07:38 74° NE 13:15:32 10° SE
Cosmos 1943 Rocket 2.6 13:02:27 10° SSW 13:08:03 62° ESE 13:13:39 10° NE
Atlas Centaur 2 4.5 13:11:27 12° NNE 13:11:27 12° NNE 13:12:29 10° NE
ATLAS 2AS CENTAUR R/B 3.5 13:06:00 22° NNE 13:08:55 32° ENE 13:14:34 10° SE
Cosmos 1892 Rocket 4.3 13:04:58 10° SSW 13:09:16 41° W 13:10:41 32° NW
Cosmos 1408 3.6 13:08:41 10° S 13:12:18 43° ESE 13:14:10 23° NE
GP-B 3.1 13:07:59 10° S 13:12:33 75° W 13:14:20 36° NNW
SL-08 R/B 4.5 13:10:14 29° NNW 13:13:34 78° W 13:19:53 10° S
NOSS 3-2 (A) 4.5 13:08:46 10° WSW 13:13:35 24° WNW 13:14:42 22° NW
Helios 1B rocket 3.5 13:12:36 16° NE 13:15:36 42° ESE 13:19:35 10° S
Meteor 2-10 Rocket 4.0 13:13:35 26° N 13:16:53 66° E 13:22:38 10° SSE
Cosmos 2056 Rocket 4.5 13:14:57 20° WNW 13:18:16 41° WSW 13:23:18 10° SSE
USA 290 3.4 13:18:45 30° NE 13:19:27 33° ENE 13:22:29 10° SE
NOSS 3-2 (C) 4.0 13:17:28 10° SW 13:23:10 35° WNW 13:25:05 28° NNW
Cosmos 1825 3.7 13:20:16 10° S 13:23:46 33° ESE 13:26:36 14° NE
ATLAS 3B R/B 3.8 13:17:27 10° SW 13:24:08 45° SE 13:30:28 10° ENE
Cosmos 1437 3.5 13:24:23 28° E 13:24:28 28° E 13:26:41 10° SSE
Cosmos 1455 Rocket 3.8 13:23:11 28° NW 13:25:01 43° WSW 13:29:21 10° S
ALOS 2 3.3 13:21:37 10° S 13:25:53 45° WSW 13:27:57 26° NW
Meteor 1-4 Rocket 3.5 13:27:06 29° WNW 13:28:10 35° WSW 13:31:31 10° S
USA 308 4.4 13:30:15 21° NNE 13:31:04 22° NE 13:34:27 10° E
Cosmos 1300 3.4 13:31:09 31° WNW 13:32:28 43° WSW 13:36:12 10° S
Lacrosse 5 rocket 2.0 13:29:50 18° WNW 13:33:14 62° SSW 13:37:45 10° SE
Cosmos 2297 3.7 13:31:17 10° SSW 13:37:05 84° WNW 13:42:12 13° NNE
Lacrosse 5 2.8 13:35:14 10° SW 13:40:15 51° SSE 13:45:15 10° ENE
USA 234 4.3 13:34:58 10° ESE 13:41:16 47° SSW 13:47:32 10° W
Cosmos 2278 Rocket 3.6 13:38:37 10° SW 13:42:42 20° W 13:44:16 18° WNW
Cosmos 1934 Rocket 4.0 13:39:46 23° N 13:43:55 85° E 13:50:12 10° S
SL-24 R/B 4.4 13:38:53 10° S 13:43:57 86° E 13:46:52 25° N
Cosmos 1850 Rocket 4.2 13:39:43 10° SSW 13:44:52 54° WNW 13:47:51 24° N
Cosmos 1331 Rocket 4.1 13:42:16 26° N 13:45:16 70° ENE 13:50:31 10° SSE
Cosmos 1544 Rocket 4.2 13:43:33 27° NW 13:45:40 46° WSW 13:50:05 10° S
ISS -3.8 13:46:07 31° WNW 13:47:39 88° NNE 13:51:07 10° ESE
In-Cosmos 22 Rocket 4.1 13:42:45 10° SSW 13:48:20 74° W 13:51:58 21° N
MSX 3.9 13:48:33 12° NNE 13:53:57 82° ESE 13:59:51 10° SSW
USA 305 3.7 13:55:12 26° N 13:56:53 37° NE 14:00:53 10° ESE
ATLAS 5 CENTAUR R/B 2.2 13:51:43 10° SW 13:57:35 74° SE 14:02:22 10° NE
Meteor 1-29 3.9 13:55:53 12° NE 13:58:55 47° ESE 14:02:17 10° S
ADEOS II 2.4 13:56:17 23° NNW 13:59:23 50° W 14:04:35 10° SSW
SL-4 R/B 3.3 13:58:17 10° W 14:00:21 20° WNW 14:00:21 20° WNW
Cosmos 2123 Rocket 4.2 13:58:03 10° SSW 14:04:22 62° W 14:09:05 18° NNW
Cosmos 1110 Rocket 4.1 14:01:40 23° NNW 14:05:05 76° WSW 14:10:29 10° SSE
Cosmos 2237 Rocket 3.6 14:01:13 11° WNW 14:05:58 31° SW 14:11:02 10° SSE
IDEFIX/ARIANE 42P 2.7 14:05:02 18° N 14:08:54 63° WNW 14:14:14 10° SSW
BREEZE-M DEB (TANK) 3.0 14:09:38 20° WNW 14:11:20 87° SSW 14:16:30 10° ESE
RESURS DK-1 2.6 14:11:05 23° NNW 14:13:34 66° ENE 14:17:45 10° SE
Cosmos 1461 4.5 14:10:54 15° NNE 14:13:43 28° ENE 14:17:35 10° ESE
Cosmos 1242 Rocket 3.4 14:11:23 17° NNE 14:13:51 44° E 14:17:20 10° SSE
Iridium 4 Rocket 4.2 14:09:46 10° S 14:13:54 41° E 14:18:11 10° NNE
Aureole 1 Rocket 3.8 14:10:23 10° SSW 14:17:15 88° ESE 14:22:23 10° NNE
CZ-2D R/B 3.8 14:18:52 15° WNW 14:21:14 19° W 14:25:05 10° SW
ERBS 4.2 14:20:33 15° NNE 14:22:02 19° NE 14:24:30 10° E
ALOS 4.0 14:18:39 10° NE 14:22:51 33° ESE 14:27:06 10° S
Uosat 12 SS-18 rocket 4.1 14:18:00 10° SW 14:23:00 80° NW 14:27:18 10° NNE
Cosmos 2263 4.3 14:18:09 10° SSW 14:23:52 79° ESE 14:29:30 10° NNE
Cosmos 1633 3.1 14:21:17 10° S 14:24:57 58° E 14:28:33 10° NNE
SL-16 R/B 2.7 14:21:51 17° NW 14:26:10 52° WSW 14:31:47 10° SSE
Cosmos 1603 4.4 14:22:19 13° N 14:27:02 48° ENE 14:32:28 10° SE
Cosmos 1455 2.6 14:25:25 21° NW 14:27:44 50° WSW 14:31:34 10° S
Cosmos 1825 Rocket 3.7 14:23:39 10° SSW 14:28:02 60° W 14:31:28 16° N
USA 306 3.1 14:26:05 20° NW 14:28:52 59° NE 14:33:06 10° ESE
Resurs 1-4 Rocket 3.9 14:28:15 12° WNW 14:30:27 15° W 14:33:26 10° SW
ADEOS Rocket 3.6 14:23:01 10° SSE 14:30:51 84° ENE 14:37:31 12° NNW
Helios 1A 4.4 14:27:04 10° SSE 14:31:01 34° E 14:34:54 10° NNE
Cosmos 1437 Rocket 3.1 14:28:30 15° N 14:31:52 67° E 14:35:55 10° SSE
Cosmos 2369 Rocket 2.2 14:26:24 10° SSW 14:32:06 70° WNW 14:37:43 10° NNE
IRS-1D 4.2 14:30:07 16° NNW 14:33:58 41° W 14:39:06 10° SSW
SL-16 R/B 3.7 14:30:17 10° SSE 14:36:11 40° E 14:41:58 10° NNE
Cosmos 1605 Rocket 4.1 14:31:23 16° NNW 14:36:23 65° WSW 14:42:41 10° S
Cosmos 968 Rocket 3.5 14:31:51 10° SSW 14:37:12 76° WNW 14:42:28 10° NNE
USA 276 2.6 14:34:45 10° WSW 14:37:56 63° S 14:41:06 10° E
Cosmos 1892 4.4 14:36:30 10° SW 14:39:13 18° W 14:40:49 15° WNW
Cosmos 1943 3.6 14:35:36 13° N 14:40:35 63° ENE 14:46:17 10° SSE
Cosmos 1656 Rocket 3.6 14:35:51 10° SSW 14:41:31 81° WNW 14:47:00 10° NNE
Cosmos 1302 Rocket 4.1 14:38:37 16° NNW 14:42:53 78° WSW 14:48:13 10° SSE
USA 307 2.9 14:44:35 16° NW 14:48:00 72° NNE 14:52:19 10° ESE
Cosmos 2228 3.9 14:46:12 15° NW 14:49:23 37° WSW 14:53:33 10° S
Cosmos 2100 Rocket 4.3 14:44:48 10° N 14:51:00 71° E 14:57:20 10° SSE
Helios 1B rocket 3.9 14:48:52 15° NW 14:51:00 21° W 14:54:12 10° SW
Cosmos 1943 Rocket 3.4 14:46:56 10° SW 14:51:22 24° WNW 14:55:06 13° NNW
IRS-1C 4.2 14:47:08 10° N 14:52:28 64° WNW 14:57:53 10° SSW
USA 290 4.3 14:51:32 10° WNW 14:53:58 19° SW 14:56:25 10° S
Cosmos 2058 Rocket 3.2 14:50:25 11° N 14:54:51 88° W 14:59:28 10° S
ARIANE 5 R/B 2.5 14:49:53 10° N 14:55:05 74° WNW 15:00:18 10° SSW
Atlas Centaur 2 4.2 14:54:03 12° NNW 14:56:31 15° N 15:00:28 10° NNE
CZ-2D R/B 3.7 14:52:13 10° NNE 14:56:41 81° ESE 15:01:08 10° SSW
UNK 4.5 14:52:46 10° SSE 14:57:26 52° E 15:02:03 10° N
BREEZE-M DEB (TANK) 1.6 14:55:49 10° W 14:58:11 76° S 15:00:38 10° ESE
Cosmos 1825 3.7 14:56:07 10° SW 14:59:01 21° W 15:01:19 13° NW
ATLAS 2AS CENTAUR R/B 2.9 14:53:25 11° NW 14:59:24 62° SW 15:05:58 10° SE
Cosmos 2151 4.4 14:57:34 10° S 15:01:41 41° ESE 15:05:45 10° NE
ATLAS CENTAUR R/B 1.6 15:03:12 12° NNW 15:07:15 68° NE 15:11:19 10° SE
YAOGAN 11 4.3 15:03:50 10° SSE 15:08:32 82° WSW 15:13:10 10° NNW
Cosmos 1953 Rocket 4.4 15:05:15 10° SSW 15:09:27 36° W 15:13:34 10° NNW
Cosmos 2058 3.6 15:05:57 10° SSW 15:09:55 39° W 15:13:51 10° NNW
Cosmos 1484 Rocket 4.3 15:06:26 10° NE 15:09:58 39° ESE 15:13:31 10° S
USA 308 3.0 15:06:15 10° WNW 15:10:33 87° SW 15:14:54 10° ESE
FENGYUN 3A 3.7 15:06:30 10° N 15:11:55 78° WNW 15:17:24 10° SSW
SeaSat 1 4.0 15:07:48 10° SE 15:12:15 31° ENE 15:16:39 10° N
Landsat 4 4.3 15:09:22 10° N 15:13:00 41° W 15:16:42 10° SSW
Lacrosse 5 rocket 3.4 15:09:03 10° WSW 15:13:04 29° S 15:16:57 10° SE
ATLAS 3B R/B 2.7 15:08:23 10° SW 15:15:03 55° WNW 15:21:23 10° NNE
Cosmos 1992 Rocket 4.1 15:11:57 10° NNW 15:17:13 88° WSW 15:22:33 10° SSE
CZ-4B R/B 3.5 15:14:23 10° N 15:19:20 76° WNW 15:24:31 10° SSW
CZ-2C R/B 2.6 15:15:16 10° N 15:20:24 62° W 15:25:39 10° SSW
Lacrosse 5 2.1 15:18:21 10° WSW 15:23:16 48° NW 15:28:09 10° NNE
Cosmos 1725 Rocket 4.4 15:17:08 10° N 15:23:25 69° E 15:29:44 10° SSE
Cosmos 2285 Rocket 4.2 15:17:24 10° NNW 15:23:43 69° WSW 15:30:05 10° SSE
CZ-2C R/B 3.2 15:20:17 10° NNE 15:24:18 71° ESE 15:28:19 10° S
ISS -2.7 15:21:21 10° WSW 15:24:41 46° S 15:28:01 10° ESE
Cosmos-2242 4.1 15:29:37 10° NNE 15:33:50 47° E 15:38:07 10° SSE
Cosmos 2173 Rocket 4.2 15:32:09 10° NNW 15:38:11 59° WSW 15:44:22 10° S
BREEZE M DEB (TANK) 4.3 15:34:44 10° NNW 15:39:25 20° NNE 15:41:50 10° ENE
